[[{"header":{"parameterUnit":"m.s-1","parameterCategory":1,"la1":30.2991,"la2":30.254,"lo1":-89.0895,"lo2":-89.0444,"dy":0.0017,"dx":0.0017,"nx":28,"ny":28,"refTime":"2023-10-25T21:00:00:Z","depth":0,"parameterNumber":2,"parameterNumberName":"U-component_of_WINDS"},"data":[0,0,0,0,0,0,0,0,0,0,0,0,0,0,0,0,0,0,0,0,0,0,0,0,0,0,0,0,0,0,0,0,0,0,0,0,0,0,0,0,0,0,0,0,0,0,0,0,0,0,0,0,0,0,0,0,0,0,-4.1116,-4.1116,0,-4.1149,-4.1149,-4.115,-4.1025,-4.1021,-4.1018,-4.1014,-4.1051,-4.1055,-4.106,0,0,0,0,0,0,0,0,0,0,0,0,0,-4.0949,-4.0952,-4.1116,-4.1116,-4.1116,-4.1149,-4.1149,-4.115,-4.1026,-4.1021,-4.1017,-4.1013,-4.105,-4.1055,-4.106,0,0,0,0,0,0,0,0,0,0,0,0,0,-4.1006,-4.0954,-4.1116,-4.1058,-4.1054,-4.1149,-4.1149,-4.115,-4.1027,-4.1021,-4.1016,-4.101,-4.1048,-4.1054,-4.1061,-4.1214,0,0,-4.1081,-4.1084,0,0,0,0,0,0,0,0,-4.1003,-4.1012,-4.1066,-4.1063,-4.1057,-4.1077,-4.1104,-4.1171,-4.1028,-4.1037,-4.1014,-4.1008,-4.1064,-4.1069,-4.1088,-4.1215,-4.1217,-4.1082,-4.1086,-4.1089,-4.1091,0,0,0,0,0,0,0,-4.0999,-4.101,-4.1129,-4.1067,-4.1062,-4.1033,-4.1034,-4.1116,-4.1082,-4.1036,-4.1027,-4.1032,-4.1061,-4.1082,-4.1088,-4.1217,-4.1082,-4.1088,-4.1092,-4.1094,-4.1474,-4.148,0,0,0,0,0,0,-4.1002,-4.1007,-4.1128,-4.113,-4.1016,-4.104,-4.1042,-4.1076,-4.108,-4.1076,-4.1037,-4.1027,-4.1073,-4.108,-4.1089,-4.1268,-4.1089,-4.1095,-4.1099,-4.1468,-4.1475,-4.1482,0,0,0,0,0,0,-4.0999,-4.1014,-4.1126,-4.1066,-4.1078,-4.1049,-4.1088,-4.108,-4.1101,-4.1081,-4.1075,-4.1065,-4.1069,-4.1079,-4.1184,-4.1268,-4.1098,-4.1104,-4.1461,-4.147,-4.1479,-4.1629,0,0,0,0,0,0,-4.0995,-4.1013,-4.107,-4.1068,-4.1082,-4.122,-4.1094,-4.1085,-4.1112,-4.1099,-4.1105,-4.1101,-4.1066,-4.1175,-4.119,-4.1274,-4.1109,-4.1453,-4.1465,-4.1476,-4.1616,-4.1642,-4.1664,0,0,0,0,0,-4.0989,-4.1111,-4.1073,-4.1089,-4.1152,-4.1225,-4.1233,-4.1188,-4.112,-4.1177,-4.1165,-4.1101,-4.1257,-4.1186,-4.1203,-4.129,-4.1448,-4.1462,-4.1475,-4.1605,-4.1637,-4.1663,0,0,0,0,0,0,-4.1123,-4.1109,-4.1068,-4.1192,-4.1211,-4.1204,-4.1274,-4.1223,-4.1262,-4.1247,-4.1192,-4.1195,-4.1309,-4.131,-4.1232,-4.1439,-4.134,-4.1358,-4.1434,-4.1464,-4.1487,-4.1484,-4.1115,0,0,0,0,0,-4.1167,-4.1227,-4.1212,-4.1324,-4.1335,-4.1304,-4.1334,-4.1299,-4.1315,-4.1323,-4.1318,-4.1338,-4.1392,-4.1428,-4.1476,-4.1617,-4.1617,-4.1685,-4.1709,-4.1729,-4.1744,-4.182,-4.1851,-4.1527,-4.1527,-4.1527,0,0,-4.1259,-4.1259,-4.1299,-4.1351,-4.136,-4.1425,-4.1311,-4.1383,-4.143,-4.1334,-4.1432,-4.143,-4.1449,-4.1573,-4.1627,-4.1577,-4.1834,-4.1746,-4.1762,-4.1767,-4.1838,-4.1868,-4.1896,-4.1536,-4.1535,-4.1533,0,0,-4.1458,-4.1464,-4.1558,-4.1571,-4.1587,-4.1566,-4.1589,-4.1591,-4.1586,-4.1683,-4.1613,-4.167,-4.1762,-4.1779,-4.18,-4.201,-4.1953,-4.2028,-4.2152,-4.2227,-4.2252,-4.2274,-4.235,-4.2378,-4.2043,-4.2044,-4.2044,0,-4.1569,-4.1662,-4.1613,-4.169,-4.1716,-4.1632,-4.1728,-4.1743,-4.1775,-4.1796,-4.1739,-4.1856,-4.1862,-4.1989,-4.2041,-4.2061,-4.2086,-4.2025,-4.2252,-4.2274,-4.2294,-4.2366,-4.2394,-4.2053,-4.2052,-4.2051,-4.205,0,-4.1799,-4.1864,-4.1939,-4.1972,-4.2006,-4.2092,-4.2058,-4.2099,-4.2062,-4.2048,-4.215,-4.2156,-4.2204,-4.2232,-4.2196,-4.2355,-4.2324,-4.2261,-4.2161,-4.2335,-4.2401,-4.2428,-4.2065,-4.2062,-4.206,-4.2057,0,0,-4.2079,-4.2087,-4.2115,-4.2129,-4.2144,-4.2194,-4.2279,-4.2326,-4.2362,-4.2389,-4.2459,-4.2541,-4.2484,-4.2508,-4.2474,-4.254,-4.2707,-4.2469,-4.2469,-4.2513,-4.2884,-4.293,-4.2963,-4.267,-4.2675,-4.2679,-4.2882,0,-4.2275,-4.2417,-4.2377,-4.252,-4.2581,-4.2505,-4.2578,-4.2596,-4.2586,-4.2638,-4.2627,-4.2687,-4.2606,-4.262,-4.2683,-4.2674,-4.2781,-4.2659,-4.2736,-4.2739,-4.2732,-4.2997,-4.3045,-4.3236,-4.2908,-4.2912,-4.2915,0,-4.252,-4.2557,-4.2706,-4.2712,-4.2736,-4.2803,-4.2844,-4.2894,-4.2914,-4.2903,-4.2931,-4.2885,-4.297,-4.2871,-4.2988,-4.2906,-4.2936,-4.2937,-4.2943,-4.2948,-4.2837,-4.3008,-4.3296,-4.3325,-4.2955,-4.2952,-4.2949,0,-4.2711,-4.2797,-4.2897,-4.2913,-4.2922,-4.2971,-4.2978,-4.2992,-4.3024,-4.3061,-4.3082,-4.3129,-4.3155,-4.3193,-4.3162,-4.3092,-4.3285,-4.3183,-4.3278,-4.328,-4.3321,-4.3318,-4.3617,-4.3342,-4.3342,-4.3341,-4.3341,0,-4.2932,-4.3026,-4.2983,-4.3045,-4.3149,-4.3104,-4.3209,-4.3208,-4.3222,-4.3283,-4.3221,-4.3281,-4.3236,-4.3293,-4.3269,-4.3371,-4.3383,-4.3377,-4.3369,-4.3381,-4.3382,-4.3399,-4.3385,-4.3349,-4.3347,-4.3346,-4.3344,0,-4.316,-4.3135,-4.324,-4.3242,-4.3244,-4.3321,-4.3323,-4.3382,-4.3369,-4.3448,-4.3464,-4.3443,-4.3507,-4.348,-4.3547,-4.3531,-4.3662,-4.3637,-4.3655,-4.3648,-4.3745,-4.3736,-4.4064,-4.4105,-4.3805,-4.3808,-4.381,0,-4.3302,-4.3373,-4.3383,-4.3419,-4.343,-4.349,-4.3523,-4.3483,-4.3519,-4.355,-4.3605,-4.3663,-4.3707,-4.3813,-4.3805,-4.3857,-4.3832,-4.3944,-4.384,-4.3851,-4.3834,-4.383,-4.3837,-4.3964,-4.3968,-4.3971,-4.3973,0,-4.3557,-4.3542,-4.359,-4.3636,-4.3677,-4.3711,-4.374,-4.3774,-4.3736,-4.3781,-4.3845,-4.3879,-4.3949,-4.4008,-4.4055,-4.4063,-4.4013,-4.4007,-4.4031,-4.4044,-4.4051,-4.4049,-4.3711,-4.3998,-4.3996,-4.3994,-4.3993,-4.3992,-4.3746,-4.3806,-4.3823,-4.388,-4.3898,-4.3927,-4.3983,-4.3977,-4.403,-4.4082,-4.4057,-4.4132,-4.4153,-4.421,-4.4227,-4.4286,-4.4242,-4.4278,-4.4287,-4.4296,-4.4309,-4.4043,-4.4294,-4.4294,-4.4293,-4.4292,-4.4292,0,-4.3997,-4.4005,-4.4058,-4.4101,-4.4147,-4.4096,-4.4127,-4.4169,-4.4235,-4.4259,-4.4304,-4.438,-4.4438,-4.4436,-4.449,-4.4538,-4.4517,-4.4554,-4.4549,-4.4552,-4.4345,-4.4318,-4.457,-4.457,-4.457,-4.457,-4.457,-4.457,-4.4133,-4.4232,-4.422,-4.4329,-4.4336,-4.4409,-4.4431,-4.4458,-4.4477,-4.4564,-4.4612,-4.461,-4.4625,-4.468,-4.4732,-4.473,-4.4753,-4.4799,-4.4789,-4.4594,-4.4567,-4.454,-4.4514,-4.4804,-4.4805,-4.4991,-4.4993,-4.4994]},{"header":{"parameterUnit":"m.s-1","parameterCategory":1,"la1":30.2991,"la2":30.254,"lo1":-89.0895,"lo2":-89.0444,"dy":0.0017,"dx":0.0017,"nx":28,"ny":28,"refTime":"2023-10-25T21:00:00:Z","depth":0,"parameterNumber":3,"parameterNumberName":"V-component_of_WINDS"},"data":[0,0,0,0,0,0,0,0,0,0,0,0,0,0,0,0,0,0,0,0,0,0,0,0,0,0,0,0,0,0,0,0,0,0,0,0,0,0,0,0,0,0,0,0,0,0,0,0,0,0,0,0,0,0,0,0,0,0,0.802,0.802,0,0.7949,0.7948,0.7947,0.784,0.7838,0.7836,0.7834,0.7763,0.7763,0.7763,0,0,0,0,0,0,0,0,0,0,0,0,0,0.8069,0.8068,0.8021,0.802,0.8019,0.7949,0.7948,0.7947,0.784,0.7838,0.7836,0.7833,0.7763,0.7763,0.7763,0,0,0,0,0,0,0,0,0,0,0,0,0,0.8028,0.8068,0.8021,0.7957,0.7951,0.7949,0.7948,0.7947,0.7841,0.7838,0.7835,0.7832,0.7763,0.7763,0.7763,0.7818,0,0,0.7762,0.7762,0,0,0,0,0,0,0,0,0.803,0.8026,0.7967,0.7961,0.7954,0.79,0.7938,0.7904,0.7841,0.7882,0.7834,0.7831,0.7811,0.7807,0.78,0.7815,0.7812,0.7762,0.7762,0.7762,0.7762,0,0,0,0,0,0,0,0.8033,0.8028,0.7992,0.7967,0.7959,0.7933,0.7924,0.7931,0.7864,0.7879,0.7871,0.7864,0.7807,0.78,0.7797,0.7811,0.7762,0.7762,0.7762,0.7762,0.7871,0.7874,0,0,0,0,0,0,0.8045,0.8031,0.7994,0.799,0.7986,0.7935,0.7925,0.792,0.7863,0.7852,0.7866,0.7859,0.7802,0.7797,0.7794,0.7857,0.7762,0.7762,0.7762,0.7868,0.7871,0.7875,0,0,0,0,0,0,0.8046,0.8043,0.7997,0.8009,0.8001,0.7937,0.7933,0.7921,0.7913,0.7854,0.7841,0.7871,0.7799,0.7794,0.7813,0.7853,0.7762,0.7761,0.7864,0.7869,0.7873,0.7983,0,0,0,0,0,0,0.8048,0.8044,0.8063,0.801,0.8001,0.8017,0.7935,0.7921,0.7913,0.7903,0.7855,0.7845,0.7797,0.7814,0.7813,0.7851,0.7761,0.786,0.7866,0.7872,0.7975,0.799,0.8003,0,0,0,0,0,0.805,0.8097,0.8065,0.8061,0.8024,0.8019,0.8014,0.7958,0.7917,0.7937,0.7899,0.7846,0.7849,0.7817,0.7815,0.7854,0.7858,0.7865,0.7871,0.7969,0.7987,0.8003,0,0,0,0,0,0,0.8157,0.8089,0.8052,0.8083,0.8058,0.8001,0.8024,0.7979,0.7965,0.7956,0.7887,0.7877,0.7906,0.7881,0.7847,0.7906,0.7845,0.7852,0.7921,0.7938,0.7951,0.7957,0.7761,0,0,0,0,0,0.8184,0.8185,0.8126,0.8159,0.8148,0.8089,0.8085,0.8044,0.8015,0.8004,0.7967,0.7943,0.7938,0.7936,0.7928,0.7971,0.796,0.7997,0.8011,0.8023,0.803,0.8053,0.8069,0.7897,0.7897,0.7897,0,0,0.824,0.8203,0.8208,0.8179,0.8155,0.8159,0.8081,0.8088,0.8091,0.8005,0.8021,0.7994,0.7962,0.7994,0.8006,0.7974,0.8075,0.8031,0.8041,0.8042,0.8061,0.8078,0.8092,0.7902,0.7901,0.79,0,0,0.8344,0.8315,0.834,0.8318,0.8282,0.8243,0.825,0.82,0.8179,0.8194,0.813,0.8133,0.8126,0.8107,0.8096,0.8196,0.8148,0.8195,0.8269,0.8292,0.8306,0.8317,0.8355,0.8369,0.8202,0.8202,0.8202,0,0.8418,0.8421,0.8359,0.8371,0.8362,0.8284,0.831,0.8292,0.8256,0.8252,0.8217,0.8208,0.818,0.8208,0.8232,0.8225,0.8232,0.82,0.8308,0.832,0.833,0.8365,0.8379,0.8208,0.8208,0.8207,0.8206,0,0.8515,0.8519,0.8543,0.8511,0.8504,0.8523,0.8465,0.8466,0.8426,0.8391,0.8409,0.8373,0.8358,0.8362,0.8322,0.8384,0.8366,0.8321,0.8259,0.8353,0.8385,0.8398,0.8217,0.8215,0.8213,0.8212,0,0,0.8683,0.8618,0.8628,0.8613,0.8569,0.8571,0.8588,0.8573,0.8576,0.8554,0.8567,0.8564,0.8523,0.8511,0.8469,0.849,0.8573,0.8442,0.844,0.8469,0.8642,0.8677,0.8693,0.8541,0.8543,0.8545,0.8645,0,0.878,0.8803,0.8749,0.8787,0.879,0.8718,0.8733,0.8709,0.8677,0.8677,0.8642,0.8641,0.8586,0.8578,0.8595,0.856,0.8607,0.8551,0.8555,0.8556,0.8566,0.8709,0.8746,0.8842,0.8657,0.8659,0.866,0,0.8894,0.8879,0.8918,0.8874,0.8873,0.8887,0.887,0.887,0.8842,0.8818,0.8806,0.8757,0.8772,0.8713,0.8734,0.8697,0.8695,0.8678,0.8681,0.8679,0.8614,0.8714,0.887,0.8886,0.8679,0.8677,0.8676,0,0.9016,0.9005,0.9026,0.9016,0.8965,0.8977,0.8956,0.8925,0.892,0.8906,0.8903,0.8891,0.8884,0.8877,0.8827,0.8788,0.8855,0.8791,0.8837,0.8838,0.8854,0.8854,0.9015,0.8852,0.8852,0.8851,0.8851,0,0.9129,0.9156,0.908,0.9094,0.9123,0.9061,0.9091,0.9064,0.9037,0.9045,0.8982,0.8992,0.8925,0.8927,0.8889,0.8913,0.891,0.8892,0.8882,0.8899,0.8901,0.8897,0.889,0.8855,0.8854,0.8853,0.8853,0,0.9269,0.9219,0.9239,0.9189,0.9178,0.9201,0.9159,0.9171,0.9136,0.9147,0.9146,0.9092,0.9092,0.9041,0.9031,0.9005,0.9047,0.9023,0.9056,0.9049,0.9099,0.9096,0.9263,0.9283,0.9107,0.9108,0.911,0,0.9345,0.9364,0.9317,0.9318,0.9301,0.9303,0.9298,0.9239,0.9236,0.9207,0.9223,0.9218,0.9211,0.9215,0.9175,0.9167,0.9144,0.9204,0.9143,0.916,0.9147,0.9147,0.915,0.9217,0.9219,0.9221,0.9222,0,0.9487,0.9462,0.9456,0.9444,0.944,0.9427,0.941,0.9415,0.9351,0.9352,0.9351,0.9346,0.9336,0.9332,0.9318,0.9298,0.9251,0.9242,0.9252,0.927,0.9289,0.9281,0.9093,0.9238,0.9237,0.9236,0.9235,0.9234,0.9597,0.9612,0.9582,0.9579,0.956,0.9547,0.9556,0.9523,0.9521,0.9508,0.9473,0.9479,0.9453,0.9428,0.9413,0.9418,0.9388,0.9403,0.9407,0.9412,0.9422,0.9288,0.9414,0.9414,0.9413,0.9413,0.9413,0,0.9737,0.9714,0.9712,0.9691,0.969,0.9645,0.9625,0.9627,0.9633,0.9612,0.9607,0.9607,0.9604,0.9565,0.9558,0.9569,0.9548,0.957,0.9569,0.9566,0.9448,0.944,0.9587,0.9587,0.9587,0.9587,0.9587,0.9587,0.9809,0.9832,0.9804,0.9818,0.9795,0.98,0.9792,0.978,0.9764,0.9767,0.9764,0.9739,0.9711,0.9702,0.9698,0.9686,0.9688,0.9717,0.9699,0.959,0.9573,0.9557,0.955,0.9718,0.9718,0.9816,0.9817,0.9818]}]]